Tracking 35331 objects as of 15-Sep-2026
HD Live streaming from Space Station
objects crossing your sky now

FLOCK 4G 9

Track FLOCK 4G 9 now!
10-day predictions


NORAD ID: 62622
Int'l Code: 2025-009P
Launch date: January 14, 2025
Source: United States (US)
Launch site: AIR FORCE WESTERN TEST RANGE (AFWTR)
Your satellite tracking list
Your tracking list is empty




NASA's NSSDC Master Catalog

Two Line Element Set (TLE):
1 62622U 25009P   26257.94596835  .00008458  00000-0  29900-3 0  9993
2 62622  97.3906 338.2937 0004716  25.1312 335.0157 15.29419747 92577
Source of the keplerian elements: AFSPC